Погода в Линн-Лейк

Канада     56°51′00″N   101°03′07″W
темп.,
°C
ветер,
м/с
пор.,
м/с
влажн.,
%
обл.,
%
осадки,
мм/ч
давл.,
гПа
погр.,
м
16 июня, ср
ср1601:00+18ююв5155345 0.0 1009491
04:00+15ююв4136299 0.0 1007319
07:00+17ююз61664100 0.0 1005597
10:00+21ююз5762100 0.0 1002717
13:00+21ююз4674100 0.7 1000843
16:00+19ю1190100 3.8 99652
19:00+16сз51095100 15.1 993785
22:00+15зсз71694100 36.9 9951243
17 июня, чт
чт1701:00+14з61585100 38.0 995918
04:00+13з71671100 0.0 995918
07:00+13з61369100 0.0 995842
10:00+12сз4884100 0.4 996873
13:00+6ссв51094100 1.6 1000693
16:00+7ссв51294100 2.1 10021077
19:00+8ссв61592100 4.1 10041162
22:00+9ссв41389100 0.3 1006860
18 июня, пт
пт1801:00+7ссв4138819 0.3 1009541
04:00+3с38920 0.0 1011181
07:00+5ссз26770 0.0 1013187
10:00+13с244473 0.0 1013581
13:00+18сз34335 0.0 10111652
16:00+20зсз46305 0.0 10101972
19:00+21зсз3732100 0.0 10082269
22:00+15зюз1155100 0.0 100711
19 июня, сб
сб1901:00+13зюз3659100 0.0 1005102
04:00+12зсз396080 0.0 1005157
07:00+12зсз411590 0.0 1004320
10:00+18зсз57456 0.0 1003807
13:00+20сз59396 0.0 10032336
16:00+17ссз6856100 0.9 10031565
19:00+13с6870100 2.1 10051084
22:00+9с49605 0.0 1009465
20 июня, вс
вс2001:00+6с410645 0.0 1012566
04:00+3сз387526 0.0 1014251
07:00+5ссз59665 0.0 1016667
10:00+9ссз684690 0.0 10161853
13:00+8ссз61054100 0.0 10171718
16:00+11ссз6104394 0.0 10172007
19:00+12ссз5114494 0.0 10162236
22:00+8зсз23595 0.0 101657